This demonstration page uses our WeatherBlox Daily Observations layout. Learn more.

Left ArrowRight Arrow

30.21309, -93.2044

Hourly Observations for October 16, 2015

Temp ( °F °C ) Dew Point ( °F °C ) Humidity (%) Winds ( mph kmh ) Pressure ( in mb ) Visibility ( mi km ) Precip ( " mm )
12:15 am 00:15 Clear 64 17.6 63 17 96 96 Calm 30.12 1020 10 16 0.00 0.00
12:35 am 00:35 Clear 62 16.7 61 16.3 98 98 Calm 30.12 1020 10 16 0.00 0.00
12:55 am 00:55 Clear 62 16.8 62 16.4 98 98 Calm 30.12 1020 10 16 0.00 0.00
1:15 am 01:15 Clear 62 16.5 61 16.2 98 98 Calm 30.12 1020 7 11 0.00 0.00
1:35 am 01:35 Clear 61 16.2 60 15.8 97 97 Calm 30.12 1020 10 16 0.00 0.00
1:55 am 01:55 Clear 61 16 60 15.7 98 98 Calm 30.12 1020 7 11 0.00 0.00
2:15 am 02:15 Clear with Mist and Fog 61 15.9 60 15.8 99 99 Calm 30.12 1020 5 8 0.00 0.00
2:35 am 02:35 Mostly Cloudy with Mist and Fog 60 15.7 60 15.6 99 99 Calm 30.12 1020 1 1 0.00 0.00
2:55 am 02:55 Clear 61 16.2 61 16.1 99 99 Calm 30.12 1020 7 11 0.00 0.00
3:15 am 03:15 Clear 61 16.2 61 16 99 99 Calm 30.12 1020 10 16 0.00 0.00
3:35 am 03:35 Clear 61 16.1 60 15.6 97 97 Calm 30.12 1020 10 16 0.00 0.00
3:55 am 03:55 Clear with Mist and Fog 61 16 60 15.8 99 99 Calm 30.12 1020 5 8 0.00 0.00
4:15 am 04:15 Clear with Mist and Fog 60 15.8 60 15.8 100 100 Calm 30.12 1020 4 6 0.00 0.00
4:35 am 04:35 Clear 61 16 60 15.7 98 98 Calm 30.12 1020 10 16 0.00 0.00
4:55 am 04:55 Clear 61 16.3 61 16 98 98 Calm 30.12 1020 7 11 0.00 0.00
5:15 am 05:15 Clear 61 16.1 60 15.8 98 98 Calm 30.12 1020 7 11 0.00 0.00
6:00 am 06:00 Mostly Clear 61 16 61 16 100 100 Calm 30.15 1021 10 16 0.00 0.00
6:50 am 06:50 Mostly Clear 57 14 57 14 100 100 Calm 30.15 1021 10 16 0.00 0.00
7:45 am 07:45 Partly Cloudy with Mist and Fog 57 14 57 14 100 100 Calm 30.15 1021 6 10 0.00 0.00
8:50 am 08:50 Mostly Sunny 66 19 64 18 94 94 Calm 30.18 1022 7 11 0.00 0.00
9:50 am 09:50 Mostly Sunny 73 23 64 18 74 74 NNE 13 20 30.24 1024 10 16 0.00 0.00
10:55 am 10:55 Mostly Sunny 79 26 64 18 61 61 NNE 8 13 30.21 1023 10 16 0.00 0.00
11:50 am 11:50 Mostly Sunny 82 28 55 13 40 40 NE 8 13 30.21 1023 10 16 0.00 0.00
12:50 pm 12:50 Mostly Sunny 86 30 57 14 38 38 NNE 6 9 30.18 1022 10 16 0.00 0.00
2:50 pm 14:50 Mostly Sunny 90 32 52 11 27 27 NE 7 11 30.09 1019 10 16 0.00 0.00
3:50 pm 15:50 Mostly Sunny 91 33 52 11 26 26 NE 8 13 30.09 1019 10 16 0.00 0.00
4:55 pm 16:55 Mostly Sunny 91 33 52 11 26 26 E 6 9 30.09 1019 10 16 0.00 0.00
5:55 pm 17:55 Mostly Sunny 88 31 54 12 31 31 E 5 7 30.09 1019 10 16 0.00 0.00
6:50 pm 18:50 Mostly Clear 81 27 55 13 42 42 NNE 3 6 30.09 1019 10 16 0.00 0.00
7:50 pm 19:50 Mostly Clear 77 25 55 13 47 47 ENE 3 6 30.12 1020 10 16 0.00 0.00
8:50 pm 20:50 Mostly Clear 73 23 55 13 53 53 NNE 6 9 30.15 1021 10 16 0.00 0.00
9:50 pm 21:50 Mostly Clear 73 23 54 12 50 50 NE 7 11 30.18 1022 10 16 0.00 0.00
10:15 pm 22:15 Clear 72 22 53 11.4 51 51 NE 8 13 30.18 1022 10 16 0.00 0.00
10:35 pm 22:35 Clear 71 21.9 52 10.9 50 50 NE 8 13 30.18 1022 10 16 0.00 0.00
10:55 pm 22:55 Clear 70 21 52 11 53 53 NNE 7 11 30.18 1022 10 16 0.00 0.00
11:15 pm 23:15 Clear 70 21.3 50 10.2 49 49 NE 8 13 30.18 1022 10 16 0.00 0.00
11:35 pm 23:35 Clear 70 21.2 49 9.5 47 47 NE 9 15 30.21 1023 10 16 0.00 0.00
11:55 pm 23:55 Clear 69 20.6 49 9.3 48 48 NE 7 11 30.21 1023 10 16 0.00 0.00

Powered by AerisWeather